Main page
METAR-TAF:

METAR-TAF

Airports :

McGregor Executive Airport

Waco, Texas, United States

latitude: 31-29N, longitude: 097-19W, elevation: 590 ft

Current weather observation

The report was made 56 minutes ago, at 10:56 UTC
Wind 13 mph from the North
Temperature 43°F
Humidity 100%
Pressure 30.27 in. Hg
Visibility: 10 miles
Overcast at a height of 600 ft
light rain

METAR: KPWG 201056Z AUTO 01011KT 10SM -RA OVC006 06/06 A3027 RMK AO2 CIG 004V010 SLP251 P0001 T00560056 $

Time: 05:52 (11:52 UTC)


TAF: missing

Weather observations and forecasts of more than 4000 airports (METAR and TAF reports).

The available stations are represented by yellow and red dots on the map.

Hover mouse over dot to see the name of the station.

Then click to see weather observations and forecasts.

To change the map : click on the green buttons with a black cross to zoom in, on the green button with a dash to zoom out, or on the green arrows for adjacent maps.


METAR-TAF: